Flag for France Weather past 2 weeks in Reims, France

Now
54 °F

Broken clouds.


Feels Like: 49 °F
Forecast: 42 / 55 °F
Wind: 16 mph from Northwest

Location: Chalons-Vatry

Current Time: Oct 22, 2014 at 4:05:03 PM

Latest Report: Oct 22, 2014 at 3:30 PM


Visibility: N/A

Pressure: 30.24 "Hg

Humidity: 63%

Dew point: 41 °F

Location of ReimsLocation

Historic Weather in Reims — Graph

°F

Reims temperature yesterday

Maximum temperature yesterday: 61 °F (at 2:00 PM)
Minimum temperature yesterday: 46 °F (at 11:00 PM)
Average temperature yesterday: 53 °F

Past Weeks' High & Low Weather Summary

 TemperatureHumidityPressure
High75 °F (Oct 18, 2:30 PM)100% (Oct 8, 12:00 AM)30.27 "Hg (Oct 8, 12:00 AM)
Low39 °F (Oct 22, 8:00 AM)59% (Oct 14, 1:00 PM)29.59 "Hg (Oct 8, 8:30 PM)
Average57 °F89%29.90 "Hg
* Reported Oct 7 3:00 PM — Oct 22 3:00 PM, Reims, Weather by CustomWeather, © 2014

Note: Actual official high and low records may vary slightly from our data, if they occured in-between our weather recording intervals... More about our weather records

Advertising

Reims weather history for previous 24 hours

 ConditionsComfort  
Time TempWeatherWind HumidityBarometerVisibility
3:00 PM
Oct 22
52 °FBroken clouds.12 mph72%30.27 "HgN/A
2:30 PM52 °FPartly sunny.16 mph67%30.27 "HgN/A
2:00 PM54 °FBroken clouds.18 mph63%30.27 "HgN/A
1:30 PM54 °FPartly sunny.21 mph63%30.27 "HgN/A
1:00 PM52 °FPartly sunny.18 mph72%30.27 "HgN/A
12:30 PM50 °FMostly cloudy.17 mph71%30.27 "HgN/A
12:00 PM50 °FPartly sunny.17 mph76%30.27 "HgN/A
11:30 AM50 °FPassing clouds.18 mph71%30.27 "HgN/A
11:00 AM48 °FClear.15 mph76%30.27 "HgN/A
10:30 AM46 °FClear.14 mph82%30.27 "HgN/A
10:00 AM45 °FClear.10 mph81%30.27 "HgN/A
9:30 AM43 °FClear.10 mph81%30.24 "HgN/A
9:00 AM41 °FClear.9 mph87%30.24 "HgN/A
8:30 AM41 °FClear.9 mph87%30.21 "HgN/A
8:00 AM39 °FClear.12 mph87%30.21 "HgN/A
7:30 AM41 °FClear.12 mph87%30.21 "HgN/A
7:00 AM41 °FClear.10 mph87%30.21 "HgN/A
6:30 AM41 °FClear.10 mph87%30.18 "HgN/A
6:00 AM41 °FClear.10 mph87%30.18 "HgN/A
5:30 AM41 °FClear.12 mph87%30.18 "HgN/A
5:00 AM43 °FPassing clouds.13 mph81%30.15 "HgN/A
4:30 AM43 °FPassing clouds.12 mph87%30.15 "HgN/A
4:00 AM45 °FPassing clouds.14 mph81%30.15 "HgN/A
3:30 AM45 °FClear.13 mph81%30.15 "HgN/A
3:00 AM43 °FClear.10 mph87%30.15 "HgN/A
2:30 AM45 °FClear.12 mph81%30.15 "HgN/A
2:00 AM45 °FClear.13 mph81%30.12 "HgN/A
1:30 AM45 °FClear.13 mph87%30.12 "HgN/A
1:00 AM43 °FPassing clouds.9 mph93%30.12 "HgN/A
12:30 AM45 °FPassing clouds.7 mph87%30.09 "HgN/A
12:00 AM46 °FPassing clouds.8 mph82%30.09 "HgN/A
11:30 PM
Oct 21
46 °FPassing clouds.12 mph82%30.07 "HgN/A
11:00 PM46 °FPassing clouds.13 mph82%30.07 "HgN/A
10:30 PM48 °FPartly cloudy.14 mph82%30.04 "HgN/A
10:00 PM48 °FPassing clouds.14 mph82%30.01 "HgN/A
9:30 PM48 °FPartly cloudy.15 mph82%30.01 "HgN/A
9:00 PM50 °FClear.18 mph76%29.98 "HgN/A
8:30 PM50 °FPassing clouds.17 mph76%29.98 "HgN/A
8:00 PM50 °FClear.17 mph76%29.95 "HgN/A
7:30 PM50 °FClear.17 mph71%29.95 "HgN/A
7:00 PM52 °FPassing clouds.20 mph72%29.92 "HgN/A
6:30 PM52 °FCool.22 mph72%29.89 "HgN/A
6:00 PM54 °FClear.25 mph67%29.86 "HgN/A
5:30 PM54 °FBroken clouds.26 mph72%29.86 "HgN/A
5:00 PM55 °FBroken clouds.23 mph82%29.83 "HgN/A
4:30 PM57 °FBroken clouds.32 mph77%29.80 "HgN/A
4:00 PM55 °FPartly sunny.28 mph88%29.80 "HgN/A
Weather by CustomWeather, © 2014

See weather overviewHow to use our weather pages